Date,TemperatureHighF,TemperatureAvgF,TemperatureLowF,DewpointHighF,DewpointAvgF,DewpointLowF,HumidityHigh,HumidityAvg,HumidityLow,PressureMaxIn,PressureMinIn,WindSpeedMaxMPH,WindSpeedAvgMPH,GustSpeedMaxMPH,PrecipitationSumIn
2013-1-1,48,46,42,48,40,26,100,81,46,30.21,30.04,17,5,21,0.23
2013-1-2,48,44,40,48,38,30,100,82,62,30.28,30.01,14,3,17,0.12
2013-1-3,42,38,26,32,29,24,92,72,58,30.40,30.25,6,2,9,0.00
2013-1-4,48,34,22,26,21,17,95,63,30,30.47,30.33,18,4,22,0.00
2013-1-5,49,38,24,28,22,16,85,55,27,30.52,30.33,9,2,12,0.00
2013-1-6,52,44,38,37,33,26,91,68,47,30.33,30.14,10,2,12,0.01
2013-1-7,50,38,27,31,28,24,93,70,42,30.54,30.31,13,2,17,0.00
2013-1-8,54,40,26,40,33,24,92,76,51,30.59,30.48,7,1,10,0.00
2013-1-9,61,49,34,50,43,33,96,81,62,30.57,30.47,13,1,15,0.00
2013-1-10,60,52,43,48,39,29,100,67,30,30.62,30.50,11,2,14,0.00
2013-1-11,51,44,41,44,42,40,100,95,66,30.50,30.28,11,3,15,0.04
2013-1-12,68,54,44,62,53,44,100,97,76,30.28,30.19,10,1,13,0.02
2013-1-13,72,64,54,60,58,54,100,81,62,30.22,30.12,25,10,31,0.00
2013-1-14,64,62,60,63,60,58,100,94,81,30.22,30.14,14,5,16,0.28
2013-1-15,55,43,40,55,43,39,100,98,95,30.32,30.19,18,7,25,0.50
2013-1-16,49,44,39,49,44,39,100,100,99,30.19,30.07,11,2,14,0.22
2013-1-17,49,45,34,49,44,32,100,98,92,30.13,29.98,27,9,37,0.87
2013-1-18,42,34,28,32,27,24,100,77,50,30.65,30.35,7,1,20,0.17
2013-1-19,52,35,22,30,26,20,95,72,35,30.62,30.26,14,3,20,0.00
2013-1-20,60,46,31,35,28,23,84,53,26,30.26,30.10,19,5,23,0.00
2013-1-21,57,42,27,35,25,10,91,57,25,30.18,29.99,22,6,27,0.00
2013-1-22,39,32,26,14,1,-6,45,27,20,30.39,30.08,20,7,26,0.00
2013-1-23,40,29,16,18,10,-1,79,47,27,30.49,30.16,17,4,22,0.00
2013-1-24,38,31,24,26,11,-2,82,46,24,30.62,30.08,25,7,33,0.00
2013-1-25,26,22,18,24,13,1,92,68,36,30.64,30.24,15,4,17,0.00
2013-1-26,39,30,25,34,28,24,98,91,67,30.51,30.22,9,2,12,0.06
2013-1-27,41,33,24,27,24,18,80,68,55,30.71,30.51,12,3,16,0.00
2013-1-28,48,41,33,46,34,26,94,77,60,30.60,30.34,17,6,22,0.02
2013-1-29,71,56,39,58,50,39,100,82,58,30.35,30.12,21,7,25,0.00
2013-1-30,72,65,55,63,60,52,95,82,60,30.12,29.48,34,20,47,0.66
2013-1-31,55,42,34,52,25,16,88,52,34,30.12,29.55,33,14,44,0.01
2013-2-1,41,33,22,26,10,-2,64,40,22,30.50,29.97,27,12,35,0.00
2013-2-2,42,31,17,35,15,5,91,55,27,30.53,30.15,22,6,27,0.02
2013-2-3,48,39,32,35,27,20,97,65,35,30.15,29.96,23,6,32,0.01
2013-2-4,47,37,24,26,22,18,84,56,33,30.26,30.10,16,5,19,0.00
2013-2-5,60,46,35,34,30,25,83,56,34,30.10,29.99,19,5,23,0.00
2013-2-6,58,44,28,36,26,19,95,56,22,30.36,30.08,14,3,17,0.00
2013-2-7,44,39,36,37,32,24,97,79,45,30.43,30.14,16,8,23,0.47
2013-2-8,56,43,36,44,34,25,100,75,36,30.19,29.94,25,9,34,0.13
2013-2-9,52,40,29,26,20,12,76,47,20,30.47,30.19,16,4,18,0.00
2013-2-10,53,40,26,39,22,16,83,54,23,30.58,30.29,16,4,22,0.11
2013-2-11,57,49,42,56,48,39,100,96,83,30.29,30.04,17,5,20,0.10
2013-2-12,55,50,44,52,32,21,99,53,27,30.21,30.02,16,5,20,0.00
2013-2-13,48,44,39,45,41,32,99,90,56,30.05,29.75,18,4,23,0.24
2013-2-14,49,41,29,32,30,24,93,67,43,30.17,29.96,15,4,18,0.00
2013-2-15,59,44,28,38,30,24,95,64,27,30.21,30.03,20,4,23,0.00
2013-2-16,42,35,29,32,27,10,93,73,39,30.08,29.94,21,5,25,0.02
2013-2-17,38,30,23,14,6,0,66,39,20,30.39,30.08,25,9,32,0.00
2013-2-18,51,35,17,24,17,10,85,53,26,30.52,30.31,19,5,25,0.00
2013-2-19,45,40,35,42,32,15,100,75,32,30.33,29.98,19,8,25,0.20
2013-2-20,52,41,30,18,12,6,55,31,20,30.24,30.10,19,6,26,0.00
2013-2-21,56,41,23,20,14,8,72,36,20,30.36,30.21,9,2,14,0.00
2013-2-22,44,35,33,34,32,19,99,88,37,30.42,30.24,10,4,14,0.34
2013-2-23,42,38,34,42,37,34,100,98,96,30.25,29.84,9,2,12,0.15
2013-2-24,60,48,38,44,33,20,100,63,24,30.06,29.83,16,6,21,0.00
2013-2-25,41,37,33,26,22,21,66,56,46,30.23,30.05,15,6,20,0.00
2013-2-26,41,37,32,41,34,22,100,91,57,30.14,29.61,19,8,26,0.74
2013-2-27,55,45,37,40,37,31,100,75,47,29.81,29.66,20,8,26,0.01
2013-2-28,46,40,30,36,26,21,92,59,39,29.89,29.72,23,8,28,0.00
2013-3-1,43,39,33,29,26,24,77,61,48,29.94,29.86,16,5,23,0.00
2013-3-2,43,38,33,27,22,16,72,53,41,29.94,29.83,16,5,21,0.00
2013-3-3,41,34,29,20,16,12,56,47,36,30.00,29.88,19,9,24,0.00
2013-3-4,50,37,26,20,13,8,58,39,20,30.13,30.00,18,5,22,0.00
2013-3-5,44,42,36,42,32,17,98,72,36,30.07,29.59,24,3,32,0.26
2013-3-6,44,39,35,41,26,19,100,62,42,30.10,29.58,33,15,43,0.09
2013-3-7,49,40,32,28,25,22,70,57,39,30.29,30.10,19,8,24,0.00
2013-3-8,53,40,28,25,22,17,77,50,26,30.33,30.22,23,9,26,0.00
2013-3-9,60,44,26,32,26,22,87,55,27,30.37,30.25,9,1,12,0.00
2013-3-10,66,51,33,34,31,27,84,50,25,30.33,30.20,14,3,20,0.00
2013-3-11,67,55,44,53,39,16,86,56,31,30.23,29.90,26,8,37,0.03
2013-3-12,64,57,47,58,46,27,99,72,32,30.00,29.76,22,10,33,0.84
2013-3-13,51,42,34,33,24,15,91,52,27,30.17,29.99,27,8,35,0.00
2013-3-14,50,39,29,18,14,11,54,37,21,30.28,30.14,21,8,25,0.00
2013-3-15,61,46,27,35,25,15,79,47,31,30.20,29.91,26,8,33,0.00
2013-3-16,76,63,50,52,43,35,72,49,29,29.91,29.69,28,11,35,0.00
2013-3-17,60,50,39,51,44,37,92,80,62,30.17,29.86,18,8,26,0.00
2013-3-18,39,38,37,39,37,36,98,96,92,30.19,29.86,19,6,23,0.24
2013-3-19,62,47,37,38,28,8,100,60,20,30.06,29.84,30,7,35,0.00
2013-3-20,54,46,40,24,11,5,39,24,20,30.13,29.80,22,8,26,0.00
2013-3-21,47,36,29,27,13,5,57,38,25,29.99,29.78,22,10,27,0.00
2013-3-22,50,36,20,20,13,9,73,40,22,30.08,29.98,16,6,21,0.00
2013-3-23,54,45,37,31,24,16,71,44,30,30.07,29.92,9,2,12,0.00
2013-3-24,43,38,35,37,34,29,95,86,61,29.94,29.57,18,6,24,0.40
2013-3-25,44,38,34,36,27,17,99,68,36,29.85,29.56,28,10,40,0.02
2013-3-26,45,39,31,25,23,19,73,55,38,30.16,29.84,21,9,26,0.00
2013-3-27,46,39,32,24,20,16,69,48,31,30.27,30.16,25,10,30,0.00
2013-3-28,52,40,26,24,20,17,77,46,26,30.31,30.20,22,7,28,0.00
2013-3-29,59,44,26,31,23,18,87,49,22,30.36,30.18,18,3,24,0.00
2013-3-30,64,49,35,40,32,22,86,55,27,30.26,30.09,12,2,18,0.00
2013-3-31,66,55,48,55,50,40,98,83,59,30.10,29.82,24,8,28,0.53
2013-4-1,68,58,49,54,43,29,100,63,27,29.99,29.85,25,8,32,0.02
2013-4-2,58,48,34,34,26,15,86,47,20,30.18,29.98,19,4,24,0.00
2013-4-3,57,48,37,26,17,12,45,29,20,30.32,30.15,15,4,22,0.00
2013-4-4,49,40,36,36,26,10,96,65,22,30.35,29.97,20,9,26,0.51
2013-4-5,63,48,35,44,37,28,100,71,28,30.06,29.92,16,5,20,0.01
2013-4-6,64,52,36,36,31,27,91,49,27,30.28,30.05,14,4,20,0.00
2013-4-7,69,57,40,45,39,31,84,54,32,30.28,30.12,28,8,33,0.00
2013-4-8,76,65,55,55,50,45,87,61,39,30.19,30.07,24,10,30,0.00
2013-4-9,81,70,57,56,53,48,84,57,34,30.23,30.09,25,8,31,0.00
2013-4-10,83,73,61,60,56,52,82,57,36,30.14,29.98,22,9,25,0.00
2013-4-11,78,70,60,64,58,55,92,68,49,30.02,29.80,26,11,34,0.00
2013-4-12,80,71,61,64,55,32,93,62,27,29.83,29.64,29,15,39,0.24
2013-4-13,73,63,43,42,35,28,84,39,20,30.05,29.83,20,5,23,0.00
2013-4-14,77,62,42,52,39,28,89,49,20,30.13,30.03,19,4,23,0.00
2013-4-15,66,61,56,57,55,50,100,81,67,30.24,30.03,14,4,17,0.05
2013-4-16,76,66,56,60,57,54,96,74,50,30.33,30.22,13,4,20,0.00
2013-4-17,80,69,58,62,57,54,94,68,42,30.27,30.14,13,4,17,0.00
2013-4-18,78,70,63,62,58,53,88,68,44,30.21,30.05,20,8,26,0.00
2013-4-19,76,68,58,66,62,50,95,82,67,30.05,29.76,35,15,40,0.29
2013-4-20,62,52,44,53,32,24,84,47,27,30.29,29.88,19,6,25,0.00
2013-4-21,59,50,40,39,34,29,84,57,37,30.51,30.29,24,7,28,0.00
2013-4-22,60,50,38,39,30,21,84,50,24,30.47,30.27,19,9,25,0.00
2013-4-23,67,55,46,51,44,38,86,69,50,30.30,30.13,14,5,18,0.00
2013-4-24,73,61,50,55,52,48,96,74,47,30.16,30.01,29,11,40,0.00
2013-4-25,70,58,46,56,37,25,78,50,20,30.32,30.05,18,5,24,0.00
2013-4-26,69,55,38,45,35,26,87,53,22,30.46,30.32,13,2,17,0.00
2013-4-27,63,56,53,47,43,38,75,61,50,30.39,30.35,9,2,12,0.00
2013-4-29,70,63,56,60,58,55,100,84,61,30.08,30.00,10,2,18,0.26
2013-4-30,65,60,54,58,56,52,98,87,69,30.22,30.03,12,5,15,0.00
2013-5-1,62,58,54,57,54,51,96,88,76,30.35,30.21,17,8,22,0.01
2013-5-2,60,57,54,55,53,49,94,87,79,30.36,30.29,16,8,21,0.00
2013-5-3,65,57,49,52,48,40,96,72,51,30.29,30.18,19,9,25,0.00
2013-5-4,60,53,46,52,45,41,95,76,57,30.22,30.08,21,11,28,0.00
2013-5-5,56,52,48,54,48,43,96,87,79,30.11,29.97,23,13,31,0.14
2013-5-6,66,59,55,61,57,53,100,91,72,29.99,29.84,19,7,26,0.72
2013-5-7,67,57,53,57,52,42,100,85,47,29.99,29.89,18,3,23,0.05
2013-5-8,69,59,52,59,54,51,100,85,57,30.05,29.95,16,3,21,0.08
2013-5-9,79,64,48,60,54,48,100,74,38,30.11,30.02,17,3,21,0.02
2013-5-10,81,69,53,61,57,52,98,69,41,30.11,29.97,22,6,28,0.00
2013-5-11,78,70,62,62,60,56,95,70,50,29.99,29.83,23,9,25,0.13
2013-5-12,68,61,52,61,45,29,100,60,25,30.06,29.86,24,7,29,0.04
2013-5-13,64,52,38,43,33,24,93,53,22,30.21,30.06,18,4,23,0.00
2013-5-14,69,55,36,44,38,31,95,57,28,30.29,30.09,19,5,24,0.00
2013-5-15,86,71,57,61,53,42,77,55,36,30.10,29.94,21,8,25,0.00
2013-5-16,81,72,59,61,58,52,93,64,38,30.05,29.95,15,4,21,0.00
2013-5-17,84,72,57,64,59,53,97,68,36,30.13,30.03,15,2,18,0.00
2013-5-18,74,67,63,65,62,58,94,84,62,30.19,30.11,12,2,17,0.18
2013-5-19,74,67,64,68,65,62,99,91,75,30.17,30.08,16,5,24,0.12
2013-5-20,79,69,64,69,66,60,100,89,59,30.15,30.05,26,4,39,0.35
2013-5-21,84,73,66,71,68,66,100,85,57,30.10,29.98,19,5,24,0.00
2013-5-22,81,73,66,68,66,63,96,78,58,30.06,29.93,19,8,24,0.03
2013-5-23,75,68,62,67,64,58,100,89,71,30.00,29.86,20,4,29,0.27
2013-5-24,66,62,54,62,47,30,98,62,27,30.24,29.89,26,8,33,0.01
2013-5-25,73,58,42,47,39,30,88,52,27,30.33,30.17,17,4,21,0.00
2013-5-26,73,60,51,55,46,38,89,62,34,30.32,30.20,14,2,17,0.00
2013-5-27,78,66,49,58,52,47,95,65,40,30.32,30.18,17,4,23,0.00
2013-5-28,82,72,63,64,61,56,92,71,47,30.28,30.18,22,9,26,0.00
2013-5-29,82,73,60,64,61,58,92,68,45,30.29,30.20,18,7,21,0.00
2013-5-30,82,72,61,65,62,57,96,71,43,30.32,30.22,15,4,18,0.00
2013-5-31,83,74,64,68,64,61,94,72,49,30.27,30.15,17,7,22,0.00
2013-6-1,84,76,68,67,64,59,92,67,45,30.18,30.06,22,9,27,0.00
2013-6-2,81,74,68,68,65,63,95,74,56,30.09,29.95,23,10,30,0.12
2013-6-3,81,71,67,68,66,63,100,85,59,30.01,29.87,18,3,24,0.43
2013-6-4,74,68,64,66,63,58,100,84,66,30.13,29.99,15,4,20,0.00
2013-6-5,75,68,64,64,61,57,94,78,65,30.17,30.05,13,4,15,0.08
2013-6-6,73,69,65,72,68,62,100,97,87,30.07,29.85,17,6,22,0.43
2013-6-7,75,69,67,71,68,66,100,96,83,29.88,29.67,13,4,20,0.42
2013-6-8,80,72,63,69,66,61,100,82,55,30.14,29.86,17,3,23,0.22
2013-6-9,84,75,65,72,68,64,99,80,52,30.20,30.09,16,3,20,0.03
2013-6-10,81,73,69,72,69,66,96,88,66,30.14,29.92,27,11,33,0.43
2013-6-11,83,74,67,68,65,59,98,75,48,30.03,29.95,19,7,23,0.02
2013-6-12,89,77,61,74,68,60,98,76,56,30.03,29.92,16,5,20,0.00
2013-6-13,90,76,66,74,68,55,97,79,40,29.92,29.68,34,7,50,0.26
2013-6-14,78,69,57,64,56,50,94,66,41,30.07,29.80,19,6,26,0.01
2013-6-15,82,70,56,63,58,53,100,69,39,30.18,30.06,14,3,18,0.00
2013-6-16,83,75,66,67,63,59,85,69,51,30.17,30.05,20,8,27,0.00
2013-6-17,83,75,70,73,68,65,93,78,56,30.08,29.98,14,5,20,0.00
2013-6-18,80,72,67,71,68,65,100,89,68,30.02,29.84,20,6,25,0.45
2013-6-19,80,72,63,68,65,60,100,81,52,30.16,29.94,10,2,13,0.00
2013-6-20,80,71,64,65,63,59,98,79,51,30.29,30.16,9,3,13,0.00
2013-6-21,80,70,60,62,58,54,91,69,43,30.32,30.24,14,3,17,0.00
2013-6-22,81,70,60,70,64,57,96,82,60,30.28,30.16,12,3,16,0.00
2013-6-23,86,74,65,71,68,65,100,81,53,30.26,30.17,17,3,21,0.00
2013-6-24,86,75,69,72,70,67,100,84,56,30.26,30.14,20,5,26,0.01
2013-6-25,88,76,69,72,69,66,100,81,51,30.18,30.05,18,5,22,0.00
2013-6-26,87,74,67,72,68,62,97,83,52,30.08,29.94,21,5,29,0.24
2013-6-27,82,73,67,73,69,65,98,88,64,30.00,29.86,15,8,20,0.95
2013-7-3,80,76,74,74,72,70,94,88,78,30.27,30.22,17,5,27,0.61
2013-7-4,83,76,72,73,71,67,96,86,61,30.31,30.22,20,6,27,0.10
2013-7-5,84,75,71,74,71,68,98,86,62,30.31,30.22,28,6,36,0.18
2013-7-6,84,74,69,73,70,67,100,89,59,30.30,30.16,18,4,28,0.25
2013-7-7,83,76,72,74,71,69,100,87,65,30.24,30.12,20,6,24,0.01
2013-7-8,85,76,70,72,70,63,100,85,49,30.24,30.15,16,2,20,0.04
2013-7-9,86,78,72,74,72,70,100,84,62,30.21,30.09,14,5,17,0.00
2013-7-10,84,76,70,73,71,69,100,84,62,30.15,29.98,27,7,36,0.34
2013-7-11,78,73,69,74,72,67,100,96,83,30.02,29.92,16,4,22,0.84
2013-7-12,76,71,68,70,67,64,100,89,70,30.07,29.93,14,4,20,0.31
2013-7-13,78,72,67,72,68,65,97,90,76,30.18,30.06,17,6,22,0.09
2013-7-14,84,76,72,72,70,66,97,82,56,30.34,30.18,19,7,27,0.05
2013-7-15,88,77,68,72,69,63,100,78,46,30.38,30.30,11,2,12,0.00
2013-7-16,90,78,66,75,70,66,99,78,50,30.35,30.25,10,2,13,0.00
2013-7-17,89,78,72,77,73,71,98,84,58,30.29,30.17,17,2,20,0.00
2013-7-18,90,79,71,75,72,70,100,82,54,30.21,30.08,15,2,20,0.00
2013-7-19,87,80,72,75,72,70,96,79,59,30.16,30.03,23,6,26,0.00
2013-7-20,85,77,72,75,72,70,96,85,67,30.08,29.97,16,6,20,0.00
2013-7-21,86,76,70,74,72,68,99,88,63,30.05,29.96,17,4,23,1.24
2013-7-22,83,76,70,73,71,68,100,87,65,30.01,29.87,18,6,22,0.00
2013-7-23,87,78,70,72,69,65,99,77,49,29.90,29.79,16,6,21,0.00
2013-7-24,88,78,67,72,68,64,98,75,49,29.92,29.80,16,2,22,0.00
2013-7-25,79,72,66,68,65,61,96,79,62,30.08,29.88,13,4,17,0.01
2013-7-26,81,74,65,67,64,59,97,74,53,30.16,30.06,12,3,16,0.00
2013-7-27,76,72,67,69,67,64,98,87,73,30.09,30.02,18,4,24,0.89
2013-7-28,82,75,69,71,68,66,99,82,60,30.04,29.96,16,4,26,0.00
2013-7-29,84,72,65,68,65,58,100,80,44,30.21,30.04,9,1,26,0.00
2013-7-30,83,73,64,71,63,56,94,74,49,30.29,30.19,11,2,13,0.00
2013-7-31,79,73,69,72,68,64,98,86,60,30.20,30.04,17,2,28,0.40
2013-8-1,83,75,70,72,70,68,98,85,62,30.05,29.92,13,4,16,0.00
2013-8-2,85,76,67,72,68,61,100,78,48,30.08,29.97,10,1,14,0.00
2013-8-3,87,77,68,74,70,66,98,81,52,30.07,29.97,16,4,20,0.00
2013-8-4,83,75,68,70,65,57,97,74,43,30.08,29.97,16,3,21,0.00
2013-8-5,81,73,63,66,64,60,93,75,54,30.13,30.03,14,4,20,0.00
2013-8-6,75,70,63,68,66,61,96,86,75,30.11,30.04,20,6,27,0.48
2013-8-7,82,75,69,71,68,64,94,79,58,30.15,30.07,19,4,23,0.00
2013-8-8,82,75,70,74,70,68,95,86,70,30.13,30.05,15,4,20,0.02
2013-8-9,86,78,73,74,72,71,94,82,62,30.10,30.05,21,8,29,0.06
2013-8-10,88,76,72,75,72,66,99,88,60,30.15,30.08,24,4,31,0.17
2013-8-11,88,77,69,76,72,67,100,86,54,30.17,30.07,10,1,15,0.01
2013-8-12,89,78,72,76,72,63,100,81,46,30.11,30.00,11,2,14,0.24
2013-8-13,85,74,70,74,71,65,100,91,63,30.01,29.85,27,3,31,0.16
2013-8-14,74,69,62,72,62,54,100,78,53,30.13,29.90,13,2,20,0.00
2013-8-15,72,64,57,60,56,50,98,76,48,30.21,30.12,14,2,17,0.00
2013-8-16,70,63,55,62,58,54,97,84,64,30.22,30.14,11,1,13,0.00
2013-8-17,66,62,59,66,61,57,100,97,92,30.24,30.17,14,3,17,1.87
2013-8-18,76,69,64,68,65,64,100,90,72,30.27,30.17,8,2,12,0.36
2013-8-19,75,68,65,69,66,64,100,94,79,30.24,30.14,7,1,10,0.19
2013-8-20,80,71,62,71,67,62,100,90,68,30.24,30.16,6,0,8,0.02
2013-8-21,82,74,68,74,71,68,100,90,67,30.27,30.16,10,1,14,0.00
2013-8-22,86,76,67,73,70,65,100,83,54,30.20,30.05,18,3,23,0.26
2013-8-23,83,72,64,72,68,61,100,86,58,30.14,30.00,15,3,21,0.01
2013-8-24,79,69,62,62,59,53,96,73,42,30.35,30.14,14,5,20,0.00
2013-8-25,77,67,57,64,59,55,99,79,47,30.44,30.33,15,2,23,0.00
2013-8-26,81,67,52,65,58,52,100,77,43,30.37,30.16,8,1,12,0.01
2013-8-27,86,73,61,76,67,59,97,81,56,30.18,30.03,11,1,13,0.00
2013-8-28,83,76,68,73,71,67,99,84,65,30.06,29.94,15,2,17,0.00
2013-8-29,85,78,72,73,70,68,96,78,59,30.06,29.92,13,4,17,0.00
2013-8-30,84,74,66,70,66,60,100,78,46,30.11,29.98,8,2,12,0.00
2013-8-31,85,73,66,73,68,64,100,85,62,30.01,29.92,24,4,28,0.37
2013-9-1,86,72,66,74,70,66,100,92,62,29.96,29.83,17,3,29,0.33
2013-9-2,84,74,68,74,70,65,100,87,57,29.95,29.85,10,1,12,0.01
2013-9-3,86,76,68,72,69,64,100,80,49,30.01,29.85,12,2,15,0.00
2013-9-4,83,71,62,68,63,60,97,78,49,30.14,30.00,8,1,12,0.00
2013-9-5,84,71,60,68,61,47,100,75,29,30.16,30.09,7,1,9,0.00
2013-9-6,78,69,60,63,58,52,98,72,49,30.24,30.14,11,2,15,0.00
2013-9-7,67,61,58,60,57,55,98,87,66,30.18,30.14,4,0,7,0.00
2013-9-8,68,68,67,67,67,67,98,98,97,30.04,30.03,0,0,0,0.00
2013-9-9,85,74,63,70,66,63,100,79,48,30.16,30.03,7,2,13,0.00
2013-9-10,75,72,70,70,69,68,92,90,85,30.26,30.21,4,0,13,0.00
2013-9-11,86,76,67,71,67,64,93,75,51,30.26,30.12,15,3,18,0.00
2013-9-12,86,76,67,72,68,65,95,79,56,30.12,29.88,17,2,21,0.00
2013-9-13,80,72,62,68,60,50,97,69,38,29.96,29.82,19,4,26,0.00
2013-9-14,74,62,55,58,52,48,90,69,47,30.17,29.96,13,2,16,0.00
2013-9-15,78,64,52,64,56,50,94,77,49,30.27,30.16,8,1,12,0.00
2013-9-16,81,71,62,66,62,58,98,77,46,30.19,30.10,12,2,16,0.00
2013-9-17,72,65,58,56,51,48,92,63,43,30.34,30.25,11,3,19,0.00
2013-9-18,65,56,52,53,51,48,94,82,58,30.36,30.30,8,2,12,0.00
2013-9-21,75,70,63,69,66,62,98,90,73,29.92,29.76,22,6,26,0.54
2013-9-22,73,65,57,63,57,51,99,78,48,29.95,29.76,16,4,22,0.02
2013-9-23,71,61,54,58,52,46,96,74,50,30.11,29.95,13,2,22,0.00
2013-9-24,75,63,53,60,56,52,98,80,48,30.13,29.98,10,1,18,0.00
2013-9-25,64,56,52,60,55,52,100,97,82,29.99,29.94,5,0,6,0.00